User: anonymous   Login
Location: Unspecified
(0.0000°N, 0.0000°E)
Time: 17:33:28
(UTC+00:00)
Language:

STSS DEMO 1 (USA 208) - Orbit

View from above orbital plane
View from above orbital plane
View from above satellite
View from above satellite

Ground track
Ground track

The orbit data is extracted from the following two-line orbital elements,

1 35937U 09052A   16170.37007076  .00000000  00000-0  00000-0 0    01
2 35937  57.9907 287.5760 0015464 266.9943  93.0057 12.79300798    00
Epoch (UTC): 18 June 2016 08:52:54
Eccentricity: 0.0015464
inclination: 57.9907°
perigee height: 1332 km
apogee height: 1356 km
right ascension of ascending node: 287.5760°
argument of perigee: 266.9943°
revolutions per day: 12.79300798
mean anomaly at epoch: 93.0057°
orbit number at epoch: 0

The dashed part of the orbit path shows where the satellite is in the earth's shadow,  

DLR